Location: Pratorotondo
(44.4333°N, 6.9833°E)
Time: 21:14:47
(UTC+00:00)

Daily predictions for brighter satellites

Satellite Brightness Start Highest point End
(mag) Time Altitude Azimuth Time Altitude Azimuth Time Altitude Azimuth
Cosmos 2315 Rocket 4.3 19:45:16 10° N 19:51:35 58° ENE 19:57:50 10° SSE
Cosmos 968 Rocket 3.5 19:48:59 10° SSW 19:54:07 79° ESE 19:59:21 10° NNE
SL-16 R/B 3.5 19:53:04 10° NW 19:58:16 38° WSW 20:03:27 10° S
IRS-1C Rocket 4.5 19:54:53 10° SE 19:59:57 52° ENE 20:05:03 10° N
Cosmos 1346 Rocket 2.8 19:57:08 10° N 20:00:58 65° ENE 20:04:45 10° SSE
Cosmos 1315 Rocket 3.9 19:58:33 10° SSE 20:01:52 26° E 20:05:15 10° NE
SJ 16-02 1.2 20:02:19 10° SSW 20:06:37 79° ESE 20:10:58 10° NNE
USA 234 4.2 20:01:56 10° ENE 20:07:07 24° SE 20:12:15 10° S
Meteor 1-21 4.3 20:02:29 10° S 20:08:12 66° E 20:13:59 10° NNE
Cosmos 1241 Rocket 4.5 20:02:23 10° SSW 20:08:34 89° ESE 20:14:52 10° NE
BlueWalker 3 2.6 20:05:57 10° WSW 20:09:39 59° NNW 20:13:22 10° NE
SL-4 R/B 2.5 20:08:31 10° NW 20:12:14 53° NNE 20:16:12 10° ESE
MOS 1 Rocket 4.3 20:07:25 10° SE 20:12:18 38° ENE 20:17:01 10° N
ARGOS Delta rocket 3.6 20:08:47 10° SSE 20:13:10 85° ENE 20:17:35 10° N
Terra 2.4 20:09:29 10° SE 20:13:56 43° ENE 20:18:24 10° N
Okean-O 2.9 20:10:03 10° S 20:14:25 69° WSW 20:18:50 10° NNW
SL-14 R/B 3.5 20:12:32 10° SSW 20:16:18 69° W 20:20:07 10° N
COSMOS 2455 3.5 20:12:27 10° S 20:17:42 33° ESE 20:22:59 10° NE
Cosmos 2237 Rocket 4.0 20:13:45 10° N 20:17:46 19° NE 20:21:45 10° E
CZ-4C R/B 2.7 20:14:16 10° S 20:17:53 27° ESE 20:22:09 10° NE
Cosmos 2333 Rocket 2.7 20:12:20 10° NNW 20:18:00 60° WSW 20:23:39 10° S
BREEZE-M DEB (TANK) 2.2 20:16:35 10° WNW 20:18:36 56° NNE 20:21:26 10° ESE
Meteor 1-4 Rocket 2.1 20:15:42 10° S 20:18:36 56° E 20:21:35 10° NNE
Okean 1-7 3.7 20:14:48 10° SSE 20:18:46 37° E 20:22:44 10° NNE
CZ-4C R/B 3.4 20:16:25 10° NNE 20:20:33 90° NNW 20:24:34 10° SSW
BREEZE-M DEB (TANK) 4.2 20:19:01 10° S 20:20:39 15° SE 20:21:20 13° ESE
Okean O Rocket 3.3 20:18:47 10° SSW 20:22:38 30° W 20:26:30 10° NW
SPOT 5 2.7 20:18:30 10° S 20:22:51 81° WSW 20:27:25 10° NNW
USA 245 4.0 20:19:03 11° SSE 20:23:04 59° ENE 20:28:13 10° N
Cosmos 1862 Rocket 3.6 20:19:07 10° S 20:23:32 86° E 20:28:00 10° N
ERS-1 Rocket 3.0 20:22:31 10° SSE 20:27:29 70° ENE 20:32:31 10° N
Cosmos 2228 Rocket 3.6 20:23:25 10° SSW 20:27:57 64° W 20:32:30 10° N
IRS-1A Rocket 4.3 20:23:07 10° SSE 20:28:38 87° ENE 20:34:13 10° NNW
Okean 3 3.4 20:25:40 10° S 20:29:48 82° E 20:34:01 10° N
Cosmos 1814 Rocket 4.3 20:24:30 10° NNW 20:29:49 71° WSW 20:35:07 10° S
Cosmos 1300 3.6 20:28:30 10° NNW 20:31:53 43° W 20:35:16 10° SSW
Cosmos 1242 Rocket 2.9 20:30:32 17° SE 20:31:56 26° E 20:34:17 10° NE
Okean 2 3.6 20:28:22 10° SSE 20:32:13 49° E 20:36:07 10° NNE
Cosmos 2322 3.9 20:27:13 10° NNW 20:32:52 62° ENE 20:37:36 15° SE
Cosmos 2322 Rocket 3.7 20:30:31 10° NW 20:35:26 31° WSW 20:40:21 10° SSW
Meteor 1-16 Rocket 4.3 20:30:44 10° N 20:36:42 81° E 20:42:14 12° SSE
Cosmos 1570 Rocket 4.3 20:32:50 10° NNW 20:38:09 59° ENE 20:42:23 16° SE
Cosmos 2297 Rocket 3.3 20:37:49 14° SSE 20:41:19 25° ESE 20:45:51 10° NE
Aureole 3 4.0 20:37:58 10° SSW 20:42:27 79° W 20:48:07 10° N
Cosmos 2219 Rocket 2.7 20:45:12 10° NNW 20:50:46 58° WSW 20:55:42 13° S
BREEZE-M DEB (TANK) 4.2 20:49:10 10° W 20:53:11 66° N 21:08:37 10° ENE
Landsat 4 3.4 20:52:02 21° SSE 20:54:08 69° ENE 20:57:33 10° N
ATLAS 2AS CENTAUR R/B 3.8 20:50:05 10° NW 20:56:01 34° WSW 21:01:48 10° S
Cosmos 1733 Rocket 4.5 20:54:27 10° NNW 20:58:30 35° W 21:02:32 10° SSW
NOSS 5 (C) 4.2 20:57:24 10° NW 21:00:32 78° SW 21:02:10 27° SSE
Spot 2 Rocket 3.6 20:56:42 15° S 21:00:53 79° WSW 21:06:01 10° NNW
Cosmos 1455 1.9 20:57:24 10° N 21:00:56 86° E 21:02:59 23° S
Cosmos 1408 3.4 21:01:32 22° ESE 21:01:54 23° E 21:04:20 10° NE
SPOT 3 Rocket 3.5 20:58:51 17° SSE 21:02:52 88° WSW 21:08:05 10° NNW
SL-08 R/B 4.4 21:02:15 11° S 21:08:11 83° E 21:14:18 10° N
SeaSat 1 2.4 21:08:35 22° SSE 21:11:47 85° ENE 21:16:43 10° NNW
Cosmos 2242 Rocket 4.3 21:14:55 25° SE 21:16:52 38° E 21:21:06 10° NNE
Cosmos 2360 Rocket 4.4 21:16:27 10° WNW 21:20:00 17° W 21:23:32 10° SW
Cosmos 1953 2.9 21:16:37 10° NNW 21:20:19 49° W 21:22:43 20° SSW
Cosmos 158 Rocket 3.9 21:15:08 10° NNW 21:20:24 86° WSW 21:23:25 25° SSE
Cosmos 1908 Rocket 3.8 21:16:20 10° NNW 21:20:37 64° W 21:23:22 21° S
COSMOS 2428 2.9 21:15:43 10° NNW 21:21:23 70° WSW 21:25:01 23° S
Cosmos 2208 Rocket 4.0 21:16:49 10° NNW 21:22:00 80° WSW 21:25:04 25° SSE
Cosmos 1782 Rocket 3.5 21:20:16 10° N 21:24:36 71° E 21:26:41 30° SSE
CENTAUR R/B 3.1 21:23:46 25° SSE 21:25:48 31° ESE 21:31:27 10° NE
Ariane Rocket 3.7 21:22:31 16° S 21:26:20 50° W 21:31:18 10° NNW
Cosmos 1300 Rocket 3.5 21:25:39 10° N 21:29:57 67° E 21:31:51 32° SSE
EXPRESS MD2 3.5 21:28:06 10° NW 21:30:20 32° NNE 21:30:59 25° NE
Cosmos 2084 Rocket 3.3 21:26:56 10° SW 21:31:16 89° NW 21:35:27 10° NE
Cosmos 1486 Rocket 4.0 21:31:43 12° SSW 21:36:31 82° WNW 21:41:46 10° NNE
MetOp-A 4.1 21:40:03 27° S 21:42:58 76° WSW 21:48:09 10° NNW
Cosmos 405 Rocket 3.8 21:39:35 10° N 21:42:58 30° ENE 21:43:50 27° E
ARIANE 5 R/B 3.3 21:41:49 29° ESE 21:43:27 41° ENE 21:47:34 10° N
GP-B 3.0 21:40:42 10° N 21:45:08 90° ENE 21:47:06 33° S
SJ 16-02 4.4 21:43:46 10° WNW 21:45:34 12° NW 21:47:23 10° NNW
NOSS 0 Rocket 4.1 21:41:33 10° NNW 21:47:45 67° WSW 21:51:08 28° S
Cosmos 371 Rocket 3.5 21:43:55 15° SSW 21:47:52 71° WNW 21:52:42 10° NNE
BlueWalker 3 4.4 21:45:20 10° WNW 21:48:22 23° N 21:51:26 10° NE
USA 234 3.2 21:44:06 10° NE 21:50:41 86° SE 21:57:14 10° SW
SL-4 R/B 2.8 21:47:18 10° WNW 21:50:54 34° SW 21:51:26 32° SSW
Terra 3.8 21:48:06 10° SW 21:51:42 22° W 21:55:19 10° NW
H-2A R/B 3.7 21:56:27 25° ESE 21:57:49 31° ENE 22:01:30 10° N
Cosmos 1354 Rocket 3.9 21:55:11 29° S 21:57:54 73° ESE 22:03:12 10° NNE
SL-12 R/B(2) 4.5 21:54:24 25° S 21:59:01 49° ESE 22:07:53 10° NE
SL-16 R/B 3.4 21:55:39 10° N 22:00:49 34° NE 22:04:11 19° ESE
Cosmos 2237 Rocket 2.1 21:56:51 10° NNW 22:02:32 81° WSW 22:05:00 35° SSE
COSMOS 2455 3.8 21:57:37 10° SW 22:03:25 47° NW 22:09:15 10° NNE
Cosmos 1745 Rocket 4.4 21:58:44 17° SSW 22:03:39 63° W 22:09:59 10° N
USA 281 3.6 22:00:04 25° SE 22:03:56 57° ENE 22:10:22 10° NNW
CZ-4C R/B 3.1 22:01:33 10° WSW 22:05:52 43° NW 22:11:18 10° NNE
Cosmos 2227 Rocket 2.2 22:03:20 32° S 22:05:53 63° ESE 22:11:29 10° NNE
Meteor 2-5 Rocket 3.7 22:05:17 31° S 22:08:12 80° E 22:14:00 10° NNE
Cosmos 2151 Rocket 4.0 22:08:51 10° N 22:13:06 47° ENE 22:14:08 39° ESE
Cosmos 773 Rocket 4.4 22:11:06 10° NNW 22:16:07 53° WSW 22:18:03 34° SSW
Cosmos 1980 3.9 22:11:26 10° NNW 22:17:00 59° WSW 22:19:14 35° S
Okean 2 Rocket 3.6 22:13:27 10° N 22:17:50 49° ENE 22:18:55 40° ESE
Cosmos 2297 Rocket 2.9 22:19:32 10° SW 22:25:00 51° WNW 22:30:31 10° NNE
ALOS 2 3.4 22:25:43 33° ESE 22:26:53 40° ENE 22:31:00 10° N
MINOTAUR 4 R/B 4.1 22:29:00 10° N 22:31:27 57° NNW 22:31:27 57° NNW
Cosmos 1461 3.7 22:34:55 34° E 22:34:55 34° E 22:37:47 10° NE
Cosmos 1703 4.4 22:33:06 28° WSW 22:34:10 35° WNW 22:37:35 10° N
NOSS 3-2 (A) 3.1 22:33:40 43° S 22:35:11 62° ESE 22:41:05 10° NE
CZ-2C R/B 4.2 22:30:55 10° N 22:35:15 53° WNW 22:37:07 31° SW
Cosmos 2074 Rocket 4.2 22:33:32 37° SSE 22:35:48 58° E 22:41:54 10° NNE
Cosmos 2098 Rocket 4.0 22:30:02 10° NNW 22:36:29 72° W 22:38:52 38° SSW
Cosmos 2181 Rocket 3.9 22:33:11 10° N 22:39:21 89° W 22:41:46 40° S
Cosmos 2219 3.2 22:37:54 43° S 22:39:36 64° ESE 22:45:10 10° NNE
Cosmos 332 Rocket 4.2 22:41:57 29° SW 22:44:16 58° WNW 22:49:07 10° NNE
Cosmos 1825 1.9 22:44:58 77° NNE 22:44:58 77° NNE 22:48:11 10° N
H-2A R/B 3.7 22:42:17 10° NE 22:45:13 19° E 22:45:13 19° E
Cosmos 2263 Rocket 2.4 22:44:08 43° SSE 22:45:21 50° ESE 22:50:44 10° NE
Meteor 1-24 Rocket 4.3 22:42:45 25° SW 22:45:51 51° WNW 22:51:14 10° N
NOSS 3-2 (C) 3.9 22:46:16 33° ESE 22:46:34 33° ESE 22:51:44 10° NE
Cosmos 2221 Rocket 3.5 22:46:44 59° S 22:47:35 88° W 22:52:01 10° N
Cosmos 1295 Rocket 4.5 22:49:44 41° SSE 22:51:52 67° E 22:57:59 10° NNE
Sich 1 Rocket 3.6 22:51:01 10° NNW 22:55:22 67° W 22:56:03 56° SW
Okean 1 Rocket 2.9 22:52:28 10° N 22:56:53 81° E 22:57:31 64° SSE
Cosmos 1538 Rocket 3.9 22:52:08 10° NNW 22:57:24 88° ENE 22:58:51 50° SSE
TIMED 4.3 22:59:19 67° SSE 22:59:41 73° ESE 23:04:01 10° NNE
Cosmos 1818 3.8 22:56:52 10° NNW 23:02:21 65° NE 23:04:38 34° ESE
Cosmos 1892 3.1 23:03:07 46° W 23:03:13 46° WNW 23:06:38 10° N
Spot 4 4.0 23:03:31 49° SSW 23:04:32 60° WSW 23:09:19 10° NNW
Cosmos 1937 Rocket 3.9 23:09:52 43° SE 23:10:42 47° ESE 23:15:42 10° NNE
Cosmos 1025 Rocket 2.8 23:12:05 69° SSE 23:12:30 78° E 23:16:48 10° NNE
Nadezhda 3 Rocket 3.9 23:09:13 10° N 23:15:29 82° E 23:17:41 43° SSE
CENTAUR R/B 3.2 23:10:49 12° WSW 23:15:58 52° NW 23:22:55 10° NNE
Cosmos 1975 Rocket 3.7 23:15:39 41° ESE 23:16:03 42° E 23:20:13 10° NNE
ARIANE 5 R/B 4.4 23:19:17 19° WSW 23:20:01 19° W 23:23:11 10° NW
Cosmos 923 Rocket 4.1 23:19:11 10° NNW 23:24:25 67° ENE 23:26:02 43° SE
Cosmos 1328 4.1 23:25:24 50° W 23:25:39 51° W 23:29:29 10° N
Cosmos 1455 Rocket 3.1 23:21:38 10° N 23:26:06 70° E 23:26:44 60° SE
Cosmos 1898 Rocket 3.4 23:25:20 53° SSW 23:26:35 88° ESE 23:31:47 10° NNE
In-Cosmos 22 Rocket 4.5 23:25:38 43° SSE 23:27:18 59° E 23:33:02 10° NNE
BlueWalker 3 4.3 23:24:21 10° NW 23:27:26 24° N 23:30:32 10° ENE
Aureole 1 Rocket 3.2 23:26:55 54° WSW 23:27:36 64° WNW 23:32:32 10° NNE
Cosmos 2184 Rocket 4.3 23:26:26 34° SW 23:29:09 60° W 23:35:30 10° N
Meteor 1-21 Rocket 4.1 23:27:44 47° S 23:29:27 89° E 23:35:07 10° N
Cosmos 1869 4.5 23:28:47 10° NNE 23:32:05 30° ENE 23:32:26 29° E
H-2A R/B 3.9 23:32:26 25° WSW 23:32:43 25° W 23:36:13 10° NW
USA 234 4.5 23:27:18 10° NE 23:33:20 41° NNW 23:39:21 10° W
Cosmos 2327 Rocket 4.4 23:38:11 45° S 23:40:14 86° E 23:46:24 10° N
SL-16 R/B 2.8 23:39:41 10° NW 23:44:59 41° WSW 23:46:02 37° SW
Cosmos 2237 Rocket 4.4 23:43:56 10° WNW 23:45:36 11° W 23:46:48 11° WSW
Cosmos 2228 4.3 23:42:41 10° N 23:46:31 31° ENE 23:47:43 26° ESE
Cosmos 2154 Rocket 4.5 23:45:18 33° SW 23:47:54 53° WNW 23:54:05 10° N
SL-8 Rocket 4.2 23:46:22 39° SSE 23:48:33 61° E 23:54:40 10° NNE
USA 281 4.2 23:46:56 26° SW 23:48:43 30° WSW 23:54:22 10° NW
Cosmos 2227 Rocket 4.1 23:45:52 10° WSW 23:50:23 24° NW 23:54:55 10° N
Cosmos 1603 4.5 23:45:04 10° NNW 23:50:39 48° ENE 23:54:09 22° SE
Cosmos 1867 3.7 23:50:23 49° SSE 23:51:27 59° ESE 23:56:50 10° NE
Cosmos 1943 3.2 23:46:01 10° NNW 23:51:40 75° ENE 23:53:53 38° SE
Cosmos 2082 4.2 23:50:40 30° WSW 23:53:14 52° WNW 23:58:44 10° NNE
PSLV R/B 4.2 23:50:10 10° N 23:54:09 44° WNW 23:54:55 39° WSW
